GW1438 Weather Reports


time (UTC)temp
F
wind
direction
speed
knots
gust
knots
rain 1hr
in
rain 24hr
in
rain mn
in
humidity
%
barometer
mb
20260505071548 60 215 0.0 0.0 0.00 0.00 0.00 66 1012.7
20260505071046 60 234 0.0 0.9 0.00 0.00 0.00 66 1012.6
20260505070543 60 226 0.0 0.0 0.00 0.00 0.00 66 1012.4
20260505070039 60 228 0.0 0.0 0.00 0.00 0.00 66 1012.5
20260505065535 60 225 0.0 0.0 0.00 0.00 0.00 66 1012.3
20260505065032 60 229 0.0 0.0 0.00 0.00 0.00 66 1012.5
20260505064528 60 221 0.0 0.0 0.00 0.00 0.00 67 1012.4
20260505064027 60 216 0.0 0.0 0.00 0.00 0.00 65 1012.6
20260505063524 61 203 0.0 0.0 0.00 0.00 0.00 65 1012.5
20260505063020 60 222 0.0 0.0 0.00 0.00 0.00 65 1012.4
20260505062517 60 225 0.0 0.0 0.00 0.00 0.00 66 1012.5
20260505062014 59 230 0.0 0.0 0.00 0.00 0.00 67 1012.6
20260505061512 59 208 0.0 0.9 0.00 0.00 0.00 68 1012.7
20260505061009 58 224 0.0 0.0 0.00 0.00 0.00 69 1012.4
20260505060506 57 225 0.0 0.0 0.00 0.00 0.00 71 1012.6
20260505060002 57 219 0.0 0.0 0.00 0.00 0.00 72 1012.6
20260505055458 57 220 0.0 0.0 0.00 0.00 0.00 72 1012.5
20260505054955 57 219 0.0 0.0 0.00 0.00 0.00 72 1012.5
20260505054453 58 219 0.0 0.0 0.00 0.00 0.00 71 1012.6
20260505053950 58 219 0.0 0.0 0.00 0.00 0.00 70 1012.6
20260505053447 59 220 0.0 0.0 0.00 0.00 0.00 69 1012.7
20260505052944 59 220 0.0 0.0 0.00 0.00 0.00 68 1012.6
20260505052441 59 224 0.0 0.0 0.00 0.00 0.00 69 1012.6
20260505051938 60 217 0.0 0.0 0.00 0.00 0.00 67 1012.7
20260505051435 60 219 0.0 0.0 0.00 0.00 0.00 66 1012.7
20260505050933 61 219 0.0 0.0 0.00 0.00 0.00 64 1012.8
20260505050431 62 218 0.0 0.0 0.00 0.00 0.00 63 1012.6
20260505041359 61 238 0.0 0.9 0.00 0.00 0.00 61 1012.7
20260505040856 60 264 0.0 0.0 0.00 0.00 0.00 62 1012.7
20260505040354 60 231 0.0 0.9 0.00 0.00 0.00 64 1012.8
20260505035850 60 223 0.0 0.0 0.00 0.00 0.00 65 1012.6
20260505035345 60 220 0.0 0.0 0.00 0.00 0.00 64 1012.5
20260505034844 60 217 0.0 0.0 0.00 0.00 0.00 63 1012.5
20260505034340 61 214 0.0 0.0 0.00 0.00 0.00 62 1012.5
20260505033837 61 205 0.0 0.0 0.00 0.00 0.00 61 1012.5
20260505033334 61 223 0.0 0.0 0.00 0.00 0.00 60 1012.8
20260505032832 62 223 0.0 0.0 0.00 0.00 0.00 59 1012.6
20260505032328 63 222 0.0 0.0 0.00 0.00 0.00 58 1012.7
20260505031825 63 225 0.0 0.0 0.00 0.00 0.00 56 1012.8
20260505031322 64 216 0.0 0.0 0.00 0.00 0.00 55 1012.5
20260505030819 64 221 0.0 0.0 0.00 0.00 0.00 54 1012.3
20260505030315 65 214 0.0 0.0 0.00 0.00 0.00 53 1012.5
20260505025810 65 226 0.0 0.0 0.00 0.00 0.00 53 1012.3
20260505025308 65 212 0.0 0.9 0.00 0.00 0.00 52 1012.4
20260505024807 65 233 0.0 0.0 0.00 0.00 0.00 52 1012.4
20260505024304 66 222 0.0 0.9 0.00 0.00 0.00 52 1012.7
20260505023801 66 215 0.0 0.0 0.00 0.00 0.00 51 1012.5
20260505023258 66 233 0.0 0.9 0.00 0.00 0.00 50 1012.7
20260505022755 66 231 0.0 0.9 0.00 0.00 0.00 51 1012.6
20260505022252 65 277 0.9 0.9 0.00 0.00 0.00 52 1012.6
20260505021749 65 211 0.0 0.0 0.00 0.00 0.00 53 1012.5
20260505021246 66 218 0.0 0.0 0.00 0.00 0.00 51 1012.4
20260505020742 66 214 0.0 0.0 0.00 0.00 0.00 50 1012.4
20260505020237 66 227 0.0 0.9 0.00 0.00 0.00 49 1012.3
20260505015734 67 200 0.0 0.9 0.00 0.00 0.00 49 1012.5
20260505015231 67 223 0.0 0.0 0.00 0.00 0.00 49 1012.4
20260505014728 67 146 2.6 2.6 0.00 0.00 0.00 48 1012.4
20260505014226 67 209 0.0 0.0 0.00 0.00 0.00 48 1012.3
20260505013722 68 193 0.0 0.9 0.00 0.00 0.00 47 1012.1
20260505013219 68 230 0.0 0.0 0.00 0.00 0.00 47 1012.0
20260505012718 68 225 0.0 0.0 0.00 0.00 0.00 47 1011.9
20260505012215 68 207 0.0 0.9 0.00 0.00 0.00 48 1011.8
20260505011710 68 244 0.0 0.9 0.00 0.00 0.00 47 1011.9
20260505011208 68 219 0.0 0.0 0.00 0.00 0.00 47 1011.9
20260505010703 68 216 0.0 0.0 0.00 0.00 0.00 46 1011.9
20260505010200 68 261 0.9 0.9 0.00 0.00 0.00 47 1012.0
20260505005656 68 166 0.0 0.9 0.00 0.00 0.00 46 1011.9
20260505005153 69 212 0.0 0.0 0.00 0.00 0.00 45 1011.7
20260505004650 69 223 0.0 0.0 0.00 0.00 0.00 45 1011.8
20260505004147 69 207 0.0 0.0 0.00 0.00 0.00 44 1011.7
20260505003644 69 191 0.0 0.9 0.00 0.00 0.00 43 1011.6
20260505003142 70 258 0.9 0.9 0.00 0.00 0.00 43 1011.8
20260505002637 70 0 0.9 1.7 0.00 0.00 0.00 43 1011.6
20260505002136 70 222 0.0 0.0 0.00 0.00 0.00 43 1011.7
20260505001633 70 176 0.9 1.7 0.00 0.00 0.00 42 1011.7
20260505001130 71 270 0.0 0.9 0.00 0.00 0.00 41 1011.8
20260505000627 71 268 0.9 0.9 0.00 0.00 0.00 41 1011.9
20260505000125 71 216 0.9 0.9 0.00 0.00 0.00 41 1011.6
20260504235621 71 236 0.0 0.9 0.00 0.00 0.00 41 1011.6
20260504235118 71 22 0.9 0.9 0.00 0.00 0.00 40 1011.6
20260504234615 71 198 0.0 0.9 0.00 0.00 0.00 40 1011.5
20260504234112 71 176 0.9 1.7 0.00 0.00 0.00 40 1011.3
20260504233608 71 200 0.0 0.9 0.00 0.00 0.00 40 1011.4
20260504233104 72 235 0.9 1.7 0.00 0.00 0.00 39 1011.2
20260504232602 72 248 0.0 0.0 0.00 0.00 0.00 40 1011.4
20260504232059 72 197 0.9 0.9 0.00 0.00 0.00 39 1011.3
20260504231555 72 169 0.9 0.9 0.00 0.00 0.00 39 1011.3
20260504231051 72 236 0.0 0.0 0.00 0.00 0.00 39 1011.3
20260504230547 72 27 1.7 1.7 0.00 0.00 0.00 39 1011.6
20260504230047 72 234 0.0 0.9 0.00 0.00 0.00 39 1011.4
20260504225543 73 207 0.9 0.9 0.00 0.00 0.00 38 1011.3
20260504225040 73 0 0.9 2.6 0.00 0.00 0.00 39 1011.4
20260504224537 73 147 0.9 0.9 0.00 0.00 0.00 38 1011.2
20260504224034 73 201 0.9 0.9 0.00 0.00 0.00 38 1011.3
20260504223531 73 258 0.9 0.9 0.00 0.00 0.00 37 1011.3
20260504223027 73 234 0.9 1.7 0.00 0.00 0.00 37 1011.5
20260504222524 73 234 0.9 1.7 0.00 0.00 0.00 38 1011.4
20260504222021 75 39 0.9 0.9 0.00 0.00 0.00 36 1011.2
20260504221518 75 264 0.0 0.9 0.00 0.00 0.00 35 1011.0
20260504221015 76 165 0.9 1.7 0.00 0.00 0.00 34 1011.0
20260504220512 76 189 0.9 1.7 0.00 0.00 0.00 35 1011.3
20260504220009 75 219 0.0 0.0 0.00 0.00 0.00 35 1011.3
20260504215505 75 205 0.0 0.9 0.00 0.00 0.00 34 1011.3
20260504215003 76 351 0.9 1.7 0.00 0.00 0.00 33 1011.1
20260504214458 76 315 0.9 0.9 0.00 0.00 0.00 34 1011.2
20260504213955 76 209 0.9 0.9 0.00 0.00 0.00 36 1011.4
20260504213451 76 26 1.7 1.7 0.00 0.00 0.00 33 1011.4
20260504212949 77 275 0.0 0.9 0.00 0.00 0.00 35 1011.3
20260504212444 77 251 0.9 0.9 0.00 0.00 0.00 34 1011.2
20260504211942 76 138 1.7 2.6 0.00 0.00 0.00 33 1011.4
20260504211438 75 212 0.0 0.9 0.00 0.00 0.00 37 1011.4
20260504210936 76 201 0.9 1.7 0.00 0.00 0.00 35 1011.4
20260504210433 77 208 0.0 0.9 0.00 0.00 0.00 34 1011.5
20260504205930 76 302 0.9 0.9 0.00 0.00 0.00 36 1011.3
20260504205427 76 162 1.7 4.3 0.00 0.00 0.00 34 1011.5
20260504204925 76 214 0.9 0.9 0.00 0.00 0.00 34 1011.5
20260504204423 76 127 0.9 0.9 0.00 0.00 0.00 33 1011.5
20260504203922 76 4 1.7 1.7 0.00 0.00 0.00 32 1011.3
20260504203420 76 241 0.0 0.9 0.00 0.00 0.00 37 1011.5
20260504202915 76 207 2.6 4.3 0.00 0.00 0.00 34 1011.7
20260504202412 76 350 1.7 1.7 0.00 0.00 0.00 34 1011.6
20260504201909 76 215 0.0 0.9 0.00 0.00 0.00 33 1011.6
20260504201406 76 359 1.7 1.7 0.00 0.00 0.00 34 1011.5
20260504200903 76 203 1.7 1.7 0.00 0.00 0.00 34 1012.0
20260504200400 76 9 1.7 1.7 0.00 0.00 0.00 35 1011.8
20260504195856 76 329 0.9 1.7 0.00 0.00 0.00 33 1011.8
20260504195352 76 289 1.7 2.6 0.00 0.00 0.00 34 1011.8
20260504194849 75 243 0.0 0.9 0.00 0.00 0.00 40 1012.1
20260504194345 75 164 0.9 1.7 0.00 0.00 0.00 35 1012.2
20260504193841 75 275 0.9 0.9 0.00 0.00 0.00 34 1012.0
20260504193338 75 233 0.9 0.9 0.00 0.00 0.00 37 1012.2
20260504192837 76 209 0.0 0.0 0.00 0.00 0.00 36 1012.4
20260504192335 75 98 0.0 1.7 0.00 0.00 0.00 38 1012.4
20260504191833 75 265 1.7 1.7 0.00 0.00 0.00 37 1012.5
20260504191330 74 269 1.7 1.7 0.00 0.00 0.00 35 1012.6
20260504190826 74 305 0.9 2.6 0.00 0.00 0.00 37 1012.5
20260504190322 74 217 0.9 0.9 0.00 0.00 0.00 35 1013.0
20260504185819 75 293 0.9 0.9 0.00 0.00 0.00 37 1013.0
20260504185316 75 186 0.9 1.7 0.00 0.00 0.00 35 1013.1
20260504184812 74 250 0.9 1.7 0.00 0.00 0.00 36 1013.0
20260504184308 75 359 0.9 0.9 0.00 0.00 0.00 35 1013.4
20260504183803 74 227 0.0 0.9 0.00 0.00 0.00 36 1013.4
20260504183301 74 218 0.9 0.9 0.00 0.00 0.00 36 1013.5
20260504182759 75 188 0.9 0.9 0.00 0.00 0.00 35 1013.5
20260504182255 74 299 1.7 1.7 0.00 0.00 0.00 38 1013.5
20260504181753 74 264 2.6 4.3 0.00 0.00 0.00 35 1013.7
20260504181250 73 235 0.0 0.9 0.00 0.00 0.00 37 1013.7
20260504180749 73 327 1.7 1.7 0.00 0.00 0.00 36 1013.7
20260504180248 72 254 0.9 1.7 0.00 0.00 0.00 40 1013.9
20260504175745 73 317 2.6 4.3 0.00 0.00 0.00 37 1014.0
20260504175241 73 355 1.7 2.6 0.00 0.00 0.00 35 1014.1
20260504174739 73 7 1.7 1.7 0.00 0.00 0.00 36 1014.0
20260504174237 73 234 1.7 2.6 0.00 0.00 0.00 34 1014.1
20260504173733 73 339 0.9 0.9 0.00 0.00 0.00 37 1014.0
20260504173230 73 285 0.9 1.7 0.00 0.00 0.00 37 1014.3
20260504172727 73 145 1.7 2.6 0.00 0.00 0.00 37 1014.3
20260504172224 73 258 0.9 0.9 0.00 0.00 0.00 41 1014.2
20260504171720 71 299 0.9 2.6 0.00 0.00 0.00 37 1014.3
20260504171217 71 296 0.9 0.9 0.00 0.00 0.00 40 1014.4
20260504170714 72 228 0.9 1.7 0.00 0.00 0.00 36 1014.7
20260504170211 72 270 1.7 1.7 0.00 0.00 0.00 37 1014.6
20260504160129 69 315 2.6 2.6 0.00 0.00 0.00 36 1015.3
20260504151057 68 245 0.9 0.9 0.00 0.00 0.00 37 1015.5
20260504150554 68 268 1.7 1.7 0.00 0.00 0.00 39 1015.7
20260504141014 66 176 1.7 1.7 0.00 0.00 0.00 42 1015.6
20260504140511 67 187 0.9 1.7 0.00 0.00 0.00 42 1015.8
20260504130435 58 312 0.9 0.9 0.00 0.00 0.00 51 1016.2
20260504110323 49 212 0.0 0.0 0.00 0.00 0.00 67 1016.6
20260504100240 48 212 0.0 0.9 0.00 0.00 0.00 68 1016.8
20260504081633 48 215 0.0 0.0 0.00 0.00 0.00 70 1017.1
20260504081130 47 226 0.0 0.0 0.00 0.00 0.00 69 1017.1
20260504080626 48 213 0.0 0.9 0.00 0.00 0.00 72 1017.0
20260504080123 48 222 0.0 0.0 0.00 0.00 0.00 72 1017.1